Time,TemperatureF,DewpointF,PressureIn,WindDirection,WindDirectionDegrees,WindSpeedMPH,WindSpeedGustMPH,Humidity,HourlyPrecipIn,Conditions,Clouds,dailyrainin,SoftwareType,DateUTC
2013-03-08 00:01:00,37.0,35.0,28.07,NW,325,2.0,5.0,93,0.00,,,0.00,,2013-03-08 08:01:00,
2013-03-08 00:11:00,37.0,35.0,28.07,NW,325,2.0,5.0,93,0.00,,,0.00,,2013-03-08 08:11:00,
2013-03-08 00:21:00,38.0,35.0,28.07,NNW,338,2.0,7.0,90,0.00,,,0.00,,2013-03-08 08:21:00,
2013-03-08 00:31:00,38.0,35.0,28.07,ESE,120,0.0,3.0,89,0.00,,,0.00,,2013-03-08 08:31:00,
2013-03-08 00:41:00,38.0,35.0,28.07,ESE,120,0.0,3.0,89,0.00,,,0.00,,2013-03-08 08:41:00,
2013-03-08 00:52:00,36.0,34.0,28.07,ESE,118,0.0,1.0,91,0.00,,,0.00,,2013-03-08 08:52:00,
2013-03-08 01:02:00,35.0,33.0,28.08,SW,233,0.0,1.0,92,0.00,,,0.00,,2013-03-08 09:02:00,
2013-03-08 01:11:00,35.0,33.0,28.08,SW,233,0.0,1.0,92,0.00,,,0.00,,2013-03-08 09:11:00,
2013-03-08 01:21:00,35.0,33.0,28.08,SW,233,0.0,1.0,93,0.00,,,0.00,,2013-03-08 09:21:00,
2013-03-08 01:32:00,35.0,33.0,28.08,WNW,282,0.0,2.0,94,0.00,,,0.00,,2013-03-08 09:32:00,
2013-03-08 01:42:00,35.0,33.0,28.08,WNW,282,0.0,2.0,94,0.00,,,0.00,,2013-03-08 09:42:00,
2013-03-08 01:51:00,35.0,33.0,28.08,NW,306,0.0,6.0,94,0.00,,,0.00,,2013-03-08 09:51:00,
2013-03-08 02:01:00,37.0,35.0,28.08,West,274,1.0,4.0,92,0.00,,,0.00,,2013-03-08 10:01:00,
2013-03-08 02:11:00,37.0,35.0,28.08,West,274,1.0,4.0,92,0.00,,,0.00,,2013-03-08 10:11:00,
2013-03-08 02:21:00,36.0,34.0,28.09,NW,325,1.0,3.0,92,0.00,,,0.00,,2013-03-08 10:21:00,
2013-03-08 02:31:00,37.0,35.0,28.08,WNW,290,5.0,8.0,91,0.00,,,0.00,,2013-03-08 10:31:00,
2013-03-08 02:41:00,37.0,35.0,28.08,WNW,290,5.0,8.0,91,0.00,,,0.00,,2013-03-08 10:41:00,
2013-03-08 02:51:00,37.0,34.0,28.08,WNW,289,3.0,8.0,90,0.00,,,0.00,,2013-03-08 10:51:00,
2013-03-08 03:01:00,38.0,35.0,28.07,NW,321,5.0,10.0,89,0.00,,,0.00,,2013-03-08 11:01:00,
2013-03-08 03:11:00,38.0,35.0,28.07,NW,321,5.0,10.0,89,0.00,,,0.00,,2013-03-08 11:11:00,
2013-03-08 03:21:00,38.0,35.0,28.07,NNW,346,4.0,6.0,88,0.00,,,0.00,,2013-03-08 11:21:00,
2013-03-08 03:32:00,37.0,34.0,28.07,NW,325,0.0,5.0,89,0.00,,,0.00,,2013-03-08 11:32:00,
2013-03-08 03:41:00,37.0,34.0,28.07,NW,325,0.0,5.0,89,0.00,,,0.00,,2013-03-08 11:41:00,
2013-03-08 03:52:00,36.0,34.0,28.07,NNW,329,2.0,4.0,91,0.00,,,0.00,,2013-03-08 11:52:00,
2013-03-08 04:01:00,35.0,33.0,28.07,NNW,336,3.0,5.0,92,0.00,,,0.00,,2013-03-08 12:01:00,
2013-03-08 04:11:00,35.0,33.0,28.07,NNW,336,3.0,5.0,92,0.00,,,0.00,,2013-03-08 12:11:00,
2013-03-08 04:22:00,35.0,33.0,28.07,West,262,0.0,3.0,93,0.00,,,0.00,,2013-03-08 12:22:00,
2013-03-08 04:32:00,35.0,33.0,28.07,NW,326,3.0,6.0,93,0.00,,,0.00,,2013-03-08 12:32:00,
2013-03-08 04:42:00,35.0,33.0,28.07,NW,326,3.0,6.0,93,0.00,,,0.00,,2013-03-08 12:42:00,
2013-03-08 04:52:00,36.0,34.0,28.07,NW,304,7.0,12.0,91,0.00,,,0.00,,2013-03-08 12:52:00,
2013-03-08 05:01:00,36.0,33.0,28.07,NW,304,6.0,11.0,90,0.00,,,0.00,,2013-03-08 13:01:00,
2013-03-08 05:11:00,36.0,33.0,28.07,NW,304,6.0,11.0,90,0.00,,,0.00,,2013-03-08 13:11:00,
2013-03-08 05:21:00,36.0,33.0,28.07,NW,325,4.0,10.0,90,0.00,,,0.00,,2013-03-08 13:21:00,
2013-03-08 05:32:00,36.0,33.0,28.07,NW,314,5.0,9.0,90,0.00,,,0.00,,2013-03-08 13:32:00,
2013-03-08 05:42:00,36.0,33.0,28.07,NW,314,5.0,9.0,90,0.00,,,0.00,,2013-03-08 13:42:00,
2013-03-08 05:52:00,36.0,33.0,28.07,NW,314,5.0,8.0,89,0.00,,,0.00,,2013-03-08 13:52:00,
2013-03-08 06:02:00,36.0,33.0,28.07,NW,314,5.0,8.0,89,0.00,,,0.00,,2013-03-08 14:02:00,
2013-03-08 06:11:00,36.0,33.0,28.07,NW,314,5.0,8.0,89,0.00,,,0.00,,2013-03-08 14:11:00,
2013-03-08 06:21:00,36.0,33.0,28.07,WNW,290,5.0,11.0,89,0.00,,,0.00,,2013-03-08 14:21:00,
2013-03-08 06:32:00,35.0,32.0,28.08,North,7,1.0,7.0,89,0.00,,,0.00,,2013-03-08 14:32:00,
2013-03-08 06:42:00,35.0,32.0,28.08,North,7,1.0,7.0,89,0.00,,,0.00,,2013-03-08 14:42:00,
2013-03-08 06:52:00,35.0,32.0,28.08,ESE,111,0.0,6.0,89,0.00,,,0.00,,2013-03-08 14:52:00,
2013-03-08 07:02:00,35.0,32.0,28.08,NW,321,1.0,4.0,90,0.00,,,0.00,,2013-03-08 15:02:00,
2013-03-08 07:11:00,35.0,32.0,28.08,NW,321,1.0,4.0,90,0.00,,,0.00,,2013-03-08 15:11:00,
2013-03-08 07:21:00,36.0,33.0,28.08,NNW,327,5.0,11.0,89,0.00,,,0.00,,2013-03-08 15:21:00,
2013-03-08 07:31:00,35.0,32.0,28.08,East,96,0.0,5.0,89,0.00,,,0.00,,2013-03-08 15:31:00,
2013-03-08 07:42:00,35.0,32.0,28.08,East,96,0.0,5.0,89,0.00,,,0.00,,2013-03-08 15:42:00,
2013-03-08 07:53:00,35.0,32.0,28.08,North,6,1.0,3.0,90,0.00,,,0.00,,2013-03-08 15:53:00,
2013-03-08 08:01:00,36.0,33.0,28.08,NW,321,5.0,11.0,88,0.00,,,0.00,,2013-03-08 16:01:00,
2013-03-08 08:11:00,36.0,33.0,28.08,NW,321,5.0,11.0,88,0.00,,,0.00,,2013-03-08 16:11:00,
2013-03-08 08:21:00,36.0,33.0,28.08,NW,312,3.0,8.0,87,0.00,,,0.00,,2013-03-08 16:21:00,
2013-03-08 08:31:00,37.0,33.0,28.08,NNW,340,1.0,7.0,86,0.00,,,0.00,,2013-03-08 16:31:00,
2013-03-08 08:41:00,37.0,33.0,28.08,NNW,340,1.0,7.0,86,0.00,,,0.00,,2013-03-08 16:41:00,
2013-03-08 08:52:00,37.0,33.0,28.09,NNW,335,3.0,6.0,86,0.00,,,0.00,,2013-03-08 16:52:00,
2013-03-08 09:02:00,38.0,33.0,28.09,West,270,2.0,7.0,83,0.00,,,0.00,,2013-03-08 17:02:00,
2013-03-08 09:11:00,38.0,33.0,28.09,West,270,2.0,7.0,83,0.00,,,0.00,,2013-03-08 17:11:00,
2013-03-08 09:21:00,38.0,33.0,28.09,West,270,2.0,7.0,83,0.00,,,0.00,,2013-03-08 17:21:00,
2013-03-08 09:31:00,40.0,34.0,28.09,NNW,332,4.0,7.0,79,0.00,,,0.00,,2013-03-08 17:31:00,
2013-03-08 09:41:00,40.0,34.0,28.09,NNW,332,4.0,7.0,79,0.00,,,0.00,,2013-03-08 17:41:00,
2013-03-08 09:52:00,41.0,34.0,28.09,NNW,340,4.0,8.0,77,0.00,,,0.00,,2013-03-08 17:52:00,
2013-03-08 10:01:00,41.0,34.0,28.09,NW,326,3.0,7.0,77,0.00,,,0.00,,2013-03-08 18:01:00,
2013-03-08 10:11:00,41.0,34.0,28.09,NW,326,3.0,7.0,77,0.00,,,0.00,,2013-03-08 18:11:00,
2013-03-08 10:21:00,42.0,35.0,28.09,NW,326,2.0,5.0,77,0.00,,,0.00,,2013-03-08 18:21:00,
2013-03-08 10:31:00,43.0,36.0,28.08,ENE,75,0.0,3.0,75,0.00,,,0.00,,2013-03-08 18:31:00,
2013-03-08 10:42:00,43.0,36.0,28.08,ENE,75,0.0,3.0,75,0.00,,,0.00,,2013-03-08 18:42:00,
2013-03-08 10:52:00,44.0,36.0,28.08,NE,48,1.0,4.0,74,0.00,,,0.00,,2013-03-08 18:52:00,
2013-03-08 11:01:00,45.0,37.0,28.07,NNE,20,1.0,3.0,73,0.00,,,0.00,,2013-03-08 19:01:00,
2013-03-08 11:11:00,45.0,37.0,28.07,NNE,20,1.0,3.0,73,0.00,,,0.00,,2013-03-08 19:11:00,
2013-03-08 11:21:00,46.0,37.0,28.07,NNE,23,1.0,3.0,71,0.00,,,0.00,,2013-03-08 19:21:00,
2013-03-08 11:31:00,46.0,37.0,28.07,SSW,201,0.0,3.0,72,0.00,,,0.00,,2013-03-08 19:31:00,
2013-03-08 11:41:00,46.0,37.0,28.07,SSW,201,0.0,3.0,72,0.00,,,0.00,,2013-03-08 19:41:00,
2013-03-08 11:52:00,47.0,38.0,28.06,East,101,1.0,4.0,70,0.00,,,0.00,,2013-03-08 19:52:00,
2013-03-08 12:01:00,48.0,38.0,28.06,SE,134,1.0,3.0,68,0.00,,,0.00,,2013-03-08 20:01:00,
2013-03-08 12:11:00,48.0,38.0,28.06,SE,134,1.0,3.0,68,0.00,,,0.00,,2013-03-08 20:11:00,
2013-03-08 12:21:00,49.0,38.0,28.05,East,101,2.0,4.0,65,0.00,,,0.00,,2013-03-08 20:21:00,
2013-03-08 12:31:00,49.0,38.0,28.05,ESE,111,0.0,3.0,65,0.00,,,0.00,,2013-03-08 20:31:00,
2013-03-08 12:41:00,49.0,38.0,28.05,ESE,111,0.0,3.0,65,0.00,,,0.00,,2013-03-08 20:41:00,
2013-03-08 12:53:00,50.0,38.0,28.04,East,86,1.0,2.0,63,0.00,,,0.00,,2013-03-08 20:53:00,
2013-03-08 13:01:00,51.0,39.0,28.04,ESE,107,0.0,3.0,63,0.00,,,0.00,,2013-03-08 21:01:00,
2013-03-08 13:11:00,51.0,39.0,28.04,ESE,107,0.0,3.0,63,0.00,,,0.00,,2013-03-08 21:11:00,
2013-03-08 13:21:00,52.0,39.0,28.03,ESE,111,1.0,3.0,60,0.00,,,0.00,,2013-03-08 21:21:00,
2013-03-08 13:32:00,52.0,36.0,28.03,ENE,64,1.0,2.0,55,0.00,,,0.00,,2013-03-08 21:32:00,
2013-03-08 13:41:00,52.0,36.0,28.03,ENE,64,1.0,2.0,55,0.00,,,0.00,,2013-03-08 21:41:00,
2013-03-08 13:51:00,52.0,35.0,28.03,East,80,3.0,6.0,52,0.00,,,0.00,,2013-03-08 21:51:00,
2013-03-08 14:01:00,53.0,36.0,28.02,SSE,159,0.0,3.0,52,0.00,,,0.00,,2013-03-08 22:01:00,
2013-03-08 14:11:00,53.0,36.0,28.02,SSE,159,0.0,3.0,52,0.00,,,0.00,,2013-03-08 22:11:00,
2013-03-08 14:21:00,53.0,36.0,28.02,SE,129,0.0,3.0,52,0.00,,,0.00,,2013-03-08 22:21:00,
2013-03-08 14:32:00,54.0,37.0,28.02,SE,134,1.0,4.0,52,0.00,,,0.00,,2013-03-08 22:32:00,
2013-03-08 14:41:00,54.0,37.0,28.02,SE,134,1.0,4.0,52,0.00,,,0.00,,2013-03-08 22:41:00,
2013-03-08 14:52:00,55.0,36.0,28.02,SSE,155,1.0,2.0,49,0.00,,,0.00,,2013-03-08 22:52:00,
2013-03-08 15:01:00,55.0,36.0,28.01,ENE,77,0.0,4.0,48,0.00,,,0.00,,2013-03-08 23:01:00,
2013-03-08 15:11:00,55.0,36.0,28.01,ENE,77,0.0,4.0,48,0.00,,,0.00,,2013-03-08 23:11:00,
2013-03-08 15:21:00,56.0,37.0,28.02,NNE,31,0.0,2.0,48,0.00,,,0.00,,2013-03-08 23:21:00,
2013-03-08 15:31:00,56.0,36.0,28.01,SE,134,0.0,3.0,46,0.00,,,0.00,,2013-03-08 23:31:00,
2013-03-08 15:41:00,56.0,36.0,28.01,SE,134,0.0,3.0,46,0.00,,,0.00,,2013-03-08 23:41:00,
2013-03-08 15:52:00,56.0,37.0,28.01,ESE,123,0.0,4.0,48,0.00,,,0.00,,2013-03-08 23:52:00,
2013-03-08 16:01:00,57.0,35.0,28.01,SSE,149,0.0,3.0,44,0.00,,,0.00,,2013-03-09 00:01:00,
2013-03-08 16:11:00,57.0,35.0,28.01,SSE,149,0.0,3.0,44,0.00,,,0.00,,2013-03-09 00:11:00,
2013-03-08 16:21:00,58.0,36.0,28.01,ENE,78,0.0,2.0,43,0.00,,,0.00,,2013-03-09 00:21:00,
2013-03-08 16:31:00,58.0,36.0,28.01,SSE,148,0.0,2.0,44,0.00,,,0.00,,2013-03-09 00:31:00,
2013-03-08 16:41:00,58.0,36.0,28.01,SSE,148,0.0,2.0,44,0.00,,,0.00,,2013-03-09 00:41:00,
2013-03-08 16:52:00,57.0,35.0,28.01,South,174,0.0,3.0,43,0.00,,,0.00,,2013-03-09 00:52:00,
2013-03-08 17:01:00,57.0,37.0,28.01,SSE,164,0.0,2.0,47,0.00,,,0.00,,2013-03-09 01:01:00,
2013-03-08 17:12:00,56.0,37.0,28.01,SW,236,0.0,1.0,49,0.00,,,0.00,,2013-03-09 01:12:00,
2013-03-08 17:21:00,56.0,37.0,28.01,SW,236,0.0,1.0,49,0.00,,,0.00,,2013-03-09 01:21:00,
2013-03-08 17:31:00,52.0,37.0,28.01,South,172,0.0,1.0,56,0.00,,,0.00,,2013-03-09 01:31:00,
2013-03-08 17:41:00,52.0,37.0,28.01,South,172,0.0,1.0,56,0.00,,,0.00,,2013-03-09 01:41:00,
2013-03-08 17:52:00,49.0,37.0,28.02,SSW,210,0.0,2.0,62,0.00,,,0.00,,2013-03-09 01:52:00,
2013-03-08 18:01:00,47.0,36.0,28.02,South,169,0.0,2.0,66,0.00,,,0.00,,2013-03-09 02:01:00,
2013-03-08 18:11:00,47.0,36.0,28.02,South,169,0.0,2.0,66,0.00,,,0.00,,2013-03-09 02:11:00,
2013-03-08 18:21:00,47.0,37.0,28.03,SSW,207,0.0,1.0,68,0.00,,,0.00,,2013-03-09 02:21:00,
2013-03-08 18:31:00,46.0,37.0,28.03,SSE,148,0.0,1.0,70,0.00,,,0.00,,2013-03-09 02:31:00,
2013-03-08 18:41:00,45.0,36.0,28.04,SSW,211,0.0,1.0,71,0.00,,,0.00,,2013-03-09 02:41:00,
2013-03-08 18:51:00,45.0,36.0,28.04,SSW,211,0.0,1.0,71,0.00,,,0.00,,2013-03-09 02:51:00,
2013-03-08 19:01:00,45.0,36.0,28.04,SSW,211,0.0,3.0,71,0.00,,,0.00,,2013-03-09 03:01:00,
2013-03-08 19:11:00,45.0,36.0,28.04,SSW,211,0.0,3.0,71,0.00,,,0.00,,2013-03-09 03:11:00,
2013-03-08 19:21:00,45.0,36.0,28.06,SSW,201,1.0,3.0,71,0.00,,,0.00,,2013-03-09 03:21:00,
2013-03-08 19:31:00,45.0,36.0,28.06,SSW,201,1.0,3.0,71,0.00,,,0.00,,2013-03-09 03:31:00,
2013-03-08 19:41:00,45.0,36.0,28.06,SSW,201,1.0,3.0,71,0.00,,,0.00,,2013-03-09 03:41:00,
2013-03-08 19:52:00,45.0,36.0,28.07,West,281,0.0,1.0,71,0.00,,,0.00,,2013-03-09 03:52:00,
2013-03-08 20:01:00,44.0,36.0,28.07,South,177,0.0,1.0,73,0.00,,,0.00,,2013-03-09 04:01:00,
2013-03-08 20:11:00,44.0,36.0,28.07,South,177,0.0,1.0,73,0.00,,,0.00,,2013-03-09 04:11:00,
2013-03-08 20:22:00,45.0,37.0,28.08,WNW,287,1.0,4.0,72,0.00,,,0.00,,2013-03-09 04:22:00,
2013-03-08 20:31:00,47.0,36.0,28.09,West,278,4.0,10.0,66,0.00,,,0.00,,2013-03-09 04:31:00,
2013-03-08 20:41:00,47.0,36.0,28.09,West,278,4.0,10.0,66,0.00,,,0.00,,2013-03-09 04:41:00,
2013-03-08 20:52:00,46.0,36.0,28.10,NNW,338,2.0,7.0,67,0.00,,,0.00,,2013-03-09 04:52:00,
2013-03-08 21:01:00,45.0,36.0,28.10,SE,141,0.0,3.0,70,0.00,,,0.00,,2013-03-09 05:01:00,
2013-03-08 21:11:00,45.0,36.0,28.10,SE,141,0.0,3.0,70,0.00,,,0.00,,2013-03-09 05:11:00,
2013-03-08 21:21:00,44.0,36.0,28.11,East,93,1.0,3.0,72,0.00,,,0.00,,2013-03-09 05:21:00,
2013-03-08 21:31:00,42.0,35.0,28.12,East,94,0.0,1.0,75,0.00,,,0.00,,2013-03-09 05:31:00,
2013-03-08 21:42:00,42.0,35.0,28.12,East,94,0.0,1.0,75,0.00,,,0.00,,2013-03-09 05:42:00,
2013-03-08 21:53:00,40.0,34.0,28.12,East,90,0.0,1.0,79,0.00,,,0.00,,2013-03-09 05:53:00,
2013-03-08 22:01:00,41.0,34.0,28.12,WNW,284,1.0,3.0,77,0.00,,,0.00,,2013-03-09 06:01:00,
2013-03-08 22:11:00,42.0,34.0,28.12,WNW,294,1.0,5.0,74,0.00,,,0.00,,2013-03-09 06:11:00,
2013-03-08 22:22:00,42.0,34.0,28.12,WNW,294,1.0,5.0,74,0.00,,,0.00,,2013-03-09 06:22:00,
2013-03-08 22:31:00,43.0,34.0,28.13,WNW,288,4.0,7.0,70,0.00,,,0.00,,2013-03-09 06:31:00,
2013-03-08 22:41:00,43.0,34.0,28.13,WNW,288,4.0,7.0,70,0.00,,,0.00,,2013-03-09 06:41:00,
2013-03-08 22:52:00,43.0,34.0,28.13,NW,311,6.0,10.0,69,0.00,,,0.00,,2013-03-09 06:52:00,
2013-03-08 23:01:00,42.0,33.0,28.14,NW,316,0.0,9.0,71,0.00,,,0.00,,2013-03-09 07:01:00,
2013-03-08 23:11:00,42.0,33.0,28.14,NW,316,0.0,9.0,71,0.00,,,0.00,,2013-03-09 07:11:00,
2013-03-08 23:21:00,41.0,34.0,28.15,NW,323,2.0,4.0,75,0.00,,,0.00,,2013-03-09 07:21:00,
2013-03-08 23:31:00,40.0,33.0,28.15,NNW,332,3.0,7.0,76,0.00,,,0.00,,2013-03-09 07:31:00,
2013-03-08 23:41:00,40.0,33.0,28.15,NNW,332,3.0,7.0,76,0.00,,,0.00,,2013-03-09 07:41:00,
2013-03-08 23:52:00,40.0,32.0,28.16,NNW,333,3.0,10.0,74,0.00,,,0.00,,2013-03-09 07:52:00,